, CA

(GMT )
Point Mugu

Weather History for KNTD - April, 2013

Change the Weather History Date:

Wednesday, April 17, 2013

  Actual Average Record
Temperature  
Mean Temperature 55 °F -  
Max Temperature 65 °F 61 °F 84 °F (2016)
Min Temperature 45 °F 45 °F 39 °F (2009)
Degree Days  
Heating Degree Days 10    
Growing Degree Days 5 (Base 50)    
Moisture  
Dew Point 43 °F    
Average Humidity 59    
Maximum Humidity 81    
Minimum Humidity 33    
Precipitation  
Precipitation 0.00 in - - ()
Sea Level Pressure  
Sea Level Pressure 30.09 in    
Wind  
Wind Speed 7 mph (WNW)    
Max Wind Speed 22 mph    
Max Gust Speed 30 mph    
Visibility 7 miles    
Events      
Averages and records for this station are not official NWS values.
T = Trace of Precipitation, MM = Missing Value Source: NWS Daily Summary

Daily Weather History Graph

Daily Weather History Graph

Search for Another Location

Airport or City:

Trip Planner

Search our weather history database for the weather conditions in past years. The results will help you decide how hot, cold, wet, or windy it might be!

Date:

Astronomy

Apr. 17, 2013 Rise Set
Actual Time 6:22 AM PDT 7:29 PM PDT
Civil Twilight 5:56 AM PDT 7:55 PM PDT
Nautical Twilight 5:25 AM PDT 8:26 PM PDT
Astronomical Twilight 4:54 AM PDT 8:58 PM PDT
Moon 11:46 AM PDT (4/17) 1:05 AM PDT (4/17)
Length of Visible Light 13h 59m
Length of Day
13h 07m
Waxing Crescent, 43% of the Moon is Illuminated
Apr 17
Waxing Crescent
Apr 18
First Quarter
Apr 25
Full
May 2
Last Quarter
May 9
New

Hourly Weather History & Observations

Time (PDT) Temp. Windchill Dew Point Humidity Pressure Visibility Wind Dir Wind Speed Gust Speed Precip Events Conditions
12:54 AM - - - N/A% - - WSW 3.5 mph - N/A   Clear
1:54 AM - - - N/A% - - West 8.1 mph - N/A   Clear
2:54 AM - - - N/A% - - NE 6.9 mph - N/A   Clear
3:54 AM - - - N/A% - - WNW 3.5 mph - N/A   Clear
4:54 AM - - - N/A% - - Calm Calm - N/A   Clear
5:30 AM 51.8 °F - 44.6 °F 76% 30.09 in 7.0 mi Calm Calm - N/A   Clear
5:54 AM 45.5 °F 43.2 °F 39.9 °F 81% 30.07 in 7.0 mi NNE 4.6 mph - N/A   Clear
6:54 AM 47.8 °F - 40.5 °F 76% 30.07 in 7.0 mi Calm Calm - N/A   Clear
7:54 AM 54.0 °F - 39.7 °F 59% 30.08 in 7.0 mi Calm Calm - N/A   Clear
8:54 AM 59.7 °F - 42.3 °F 52% 30.08 in 7.0 mi Calm Calm - N/A   Clear
9:54 AM 63.0 °F - 43.9 °F 50% 30.13 in 7.0 mi West 11.5 mph - N/A   Clear
10:54 AM 61.0 °F - 34.9 °F 38% 30.12 in 7.0 mi WNW 10.4 mph - N/A   Clear
11:54 AM 63.7 °F - 33.8 °F 33% 30.12 in 7.0 mi West 16.1 mph - N/A   Clear
12:54 PM 65.1 °F - 43.0 °F 45% 30.12 in 7.0 mi West 19.6 mph - N/A   Clear
1:54 PM 65.8 °F - 38.8 °F 37% 30.09 in 7.0 mi West 21.9 mph 28.8 mph N/A   Clear
2:54 PM 64.0 °F - 43.5 °F 47% 30.08 in 7.0 mi West 19.6 mph 29.9 mph N/A   Clear
3:54 PM 61.7 °F - 47.8 °F 60% 30.08 in 7.0 mi West 18.4 mph 28.8 mph N/A   Clear
4:54 PM 62.8 °F - 46.9 °F 56% 30.07 in 7.0 mi WNW 17.3 mph 24.2 mph N/A   Clear
5:54 PM 60.4 °F - 46.6 °F 60% 30.07 in 7.0 mi West 8.1 mph - N/A   Clear
6:54 PM 59.5 °F - 46.8 °F 63% 30.06 in 7.0 mi West 3.5 mph - N/A   Clear
7:54 PM 58.3 °F - 46.8 °F 66% 30.07 in 7.0 mi Calm Calm - N/A   Clear
8:54 PM 56.8 °F - 46.9 °F 69% 30.08 in 7.0 mi ENE 3.5 mph - N/A   Clear
9:54 PM 54.5 °F - 43.2 °F 66% 30.12 in 7.0 mi NE 5.8 mph - N/A   Clear
10:54 PM 53.6 °F - 43.9 °F 70% 30.12 in 7.0 mi NW 5.8 mph - N/A   Clear
11:54 PM 53.6 °F - 43.9 °F 70% 30.12 in 7.0 mi NNW 5.8 mph - N/A   Clear